TimeCDT,TemperatureF,Dew PointF,Humidity,Sea Level PressureIn,VisibilityMPH,Wind Direction,Wind SpeedMPH,Gust SpeedMPH,PrecipitationIn,Events,Conditions,WindDirDegrees,DateUTC
12:15 AM,55.4,42.8,63,29.87,10.0,ESE,11.5,-,N/A,,Clear,110,2013-05-16 05:15:00
12:35 AM,53.6,42.8,67,29.88,10.0,East,10.4,-,N/A,,Clear,100,2013-05-16 05:35:00
1:15 AM,51.8,42.8,71,29.89,10.0,ESE,9.2,-,N/A,,Clear,110,2013-05-16 06:15:00
1:35 AM,50.0,42.8,76,29.89,10.0,ESE,8.1,-,N/A,,Clear,110,2013-05-16 06:35:00
1:55 AM,48.2,44.6,87,29.89,10.0,ESE,9.2,-,N/A,,Clear,120,2013-05-16 06:55:00
2:15 AM,46.4,42.8,87,29.89,10.0,ESE,9.2,-,N/A,,Clear,120,2013-05-16 07:15:00
2:35 AM,48.2,44.6,87,29.89,10.0,ESE,10.4,-,N/A,,Clear,110,2013-05-16 07:35:00
2:55 AM,48.2,44.6,87,29.89,10.0,ESE,8.1,-,N/A,,Clear,110,2013-05-16 07:55:00
3:15 AM,48.2,44.6,87,29.89,10.0,ESE,10.4,-,N/A,,Clear,120,2013-05-16 08:15:00
3:35 AM,50.0,44.6,82,29.89,10.0,SE,9.2,-,N/A,,Clear,130,2013-05-16 08:35:00
3:55 AM,50.0,44.6,82,29.89,10.0,SE,8.1,-,N/A,,Clear,130,2013-05-16 08:55:00
4:15 AM,48.2,44.6,87,29.90,10.0,SE,8.1,-,N/A,,Clear,130,2013-05-16 09:15:00
4:35 AM,48.2,42.8,82,29.89,10.0,SE,10.4,-,N/A,,Clear,130,2013-05-16 09:35:00
4:55 AM,48.2,42.8,82,29.90,10.0,SE,9.2,-,N/A,,Clear,130,2013-05-16 09:55:00
5:15 AM,48.2,42.8,82,29.90,10.0,ESE,8.1,-,N/A,,Clear,120,2013-05-16 10:15:00
5:35 AM,46.4,42.8,87,29.91,10.0,ESE,8.1,-,N/A,,Clear,120,2013-05-16 10:35:00
5:55 AM,46.4,42.8,87,29.90,10.0,ESE,10.4,-,N/A,,Clear,120,2013-05-16 10:55:00
6:15 AM,46.4,41.0,81,29.91,10.0,ESE,10.4,-,N/A,,Clear,120,2013-05-16 11:15:00
6:35 AM,46.4,42.8,87,29.91,10.0,ESE,9.2,-,N/A,,Clear,110,2013-05-16 11:35:00
6:55 AM,48.2,42.8,82,29.92,10.0,ESE,9.2,-,N/A,,Clear,120,2013-05-16 11:55:00
7:15 AM,48.2,44.6,87,29.92,10.0,ESE,9.2,-,N/A,,Clear,120,2013-05-16 12:15:00
7:35 AM,50.0,44.6,82,29.92,10.0,SE,11.5,-,N/A,,Clear,130,2013-05-16 12:35:00
7:55 AM,53.6,42.8,67,29.92,10.0,SE,15.0,-,N/A,,Clear,130,2013-05-16 12:55:00
8:15 AM,55.4,42.8,63,29.92,10.0,SE,12.7,-,N/A,,Clear,140,2013-05-16 13:15:00
8:35 AM,57.2,41.0,55,29.92,10.0,SE,15.0,18.4,N/A,,Clear,130,2013-05-16 13:35:00
8:55 AM,57.2,42.8,59,29.93,10.0,SE,15.0,-,N/A,,Clear,140,2013-05-16 13:55:00
9:15 AM,57.2,41.0,55,29.92,10.0,SE,12.7,19.6,N/A,,Clear,130,2013-05-16 14:15:00
9:35 AM,57.2,42.8,59,29.92,10.0,SE,9.2,-,N/A,,Clear,130,2013-05-16 14:35:00
9:55 AM,59.0,42.8,55,29.92,10.0,SE,11.5,-,N/A,,Clear,130,2013-05-16 14:55:00
10:15 AM,59.0,42.8,55,29.91,10.0,SE,11.5,-,N/A,,Clear,130,2013-05-16 15:15:00
10:35 AM,59.0,41.0,51,29.91,10.0,SE,16.1,-,N/A,,Clear,130,2013-05-16 15:35:00
10:55 AM,59.0,41.0,51,29.91,10.0,SE,12.7,-,N/A,,Clear,140,2013-05-16 15:55:00
11:15 AM,59.0,41.0,51,29.92,10.0,SE,13.8,-,N/A,,Clear,130,2013-05-16 16:15:00
11:35 AM,60.8,42.8,52,29.93,10.0,SE,9.2,-,N/A,,Clear,140,2013-05-16 16:35:00
11:55 AM,62.6,44.6,52,29.93,10.0,SE,13.8,-,N/A,,Clear,140,2013-05-16 16:55:00
12:15 PM,62.6,42.8,48,29.93,10.0,SE,13.8,-,N/A,,Clear,140,2013-05-16 17:15:00
12:35 PM,62.6,44.6,52,29.94,10.0,SSE,11.5,-,N/A,,Clear,160,2013-05-16 17:35:00
12:55 PM,62.6,44.6,52,29.95,10.0,SSE,9.2,-,N/A,,Partly Cloudy,160,2013-05-16 17:55:00
1:15 PM,62.6,46.4,55,29.95,10.0,SW,11.5,16.1,N/A,,Scattered Clouds,220,2013-05-16 18:15:00
1:35 PM,62.6,46.4,55,29.96,10.0,SW,12.7,-,N/A,,Mostly Cloudy,230,2013-05-16 18:35:00
2:15 PM,60.8,50.0,68,29.96,10.0,WSW,12.7,-,N/A,,Scattered Clouds,240,2013-05-16 19:15:00
2:35 PM,59.0,51.8,77,29.97,10.0,SW,13.8,-,N/A,,Mostly Cloudy,230,2013-05-16 19:35:00
2:55 PM,59.0,53.6,82,29.97,10.0,SW,17.3,-,N/A,,Partly Cloudy,220,2013-05-16 19:55:00
3:15 PM,57.2,53.6,88,29.97,10.0,SSW,16.1,19.6,N/A,,Clear,200,2013-05-16 20:15:00
3:35 PM,57.2,53.6,88,29.97,10.0,South,13.8,-,N/A,,Clear,190,2013-05-16 20:35:00
3:55 PM,57.2,53.6,88,29.97,10.0,South,16.1,-,N/A,,Clear,180,2013-05-16 20:55:00
4:15 PM,57.2,53.6,88,29.96,10.0,South,19.6,-,N/A,,Clear,180,2013-05-16 21:15:00
4:35 PM,57.2,53.6,88,29.95,10.0,South,21.9,27.6,N/A,,Clear,180,2013-05-16 21:35:00
5:15 PM,57.2,51.8,82,29.95,10.0,SSE,16.1,-,N/A,,Partly Cloudy,160,2013-05-16 22:15:00
5:35 PM,57.2,50.0,77,29.95,10.0,SSE,15.0,-,N/A,,Mostly Cloudy,150,2013-05-16 22:35:00
5:55 PM,59.0,50.0,72,29.95,10.0,SSE,16.1,21.9,N/A,,Overcast,150,2013-05-16 22:55:00
6:15 PM,57.2,50.0,77,29.94,10.0,SSE,19.6,-,N/A,,Overcast,150,2013-05-16 23:15:00
6:35 PM,57.2,50.0,77,29.94,10.0,SE,18.4,-,N/A,,Overcast,140,2013-05-16 23:35:00
6:55 PM,57.2,50.0,77,29.93,10.0,SE,17.3,-,N/A,,Overcast,140,2013-05-16 23:55:00
7:15 PM,57.2,50.0,77,29.92,10.0,SE,18.4,-,N/A,,Mostly Cloudy,140,2013-05-17 00:15:00
7:35 PM,57.2,50.0,77,29.92,10.0,SE,17.3,-,N/A,,Mostly Cloudy,130,2013-05-17 00:35:00
7:55 PM,57.2,50.0,77,29.92,10.0,ESE,13.8,-,N/A,,Overcast,120,2013-05-17 00:55:00
8:15 PM,57.2,50.0,77,29.92,10.0,ESE,16.1,-,N/A,,Mostly Cloudy,120,2013-05-17 01:15:00
8:35 PM,55.4,50.0,82,29.93,10.0,ESE,12.7,-,N/A,,Overcast,120,2013-05-17 01:35:00
8:55 PM,55.4,50.0,82,29.93,10.0,ESE,12.7,-,N/A,,Overcast,120,2013-05-17 01:55:00
9:15 PM,53.6,50.0,88,29.94,10.0,ESE,8.1,-,N/A,,Overcast,110,2013-05-17 02:15:00
9:35 PM,53.6,50.0,88,29.95,10.0,ESE,6.9,-,N/A,,Overcast,120,2013-05-17 02:35:00
9:55 PM,53.6,50.0,88,29.95,10.0,ESE,6.9,-,N/A,,Overcast,110,2013-05-17 02:55:00
10:15 PM,53.6,50.0,88,29.96,10.0,ESE,8.1,-,N/A,,Overcast,120,2013-05-17 03:15:00
10:35 PM,53.6,50.0,88,29.96,10.0,ESE,11.5,-,N/A,,Overcast,120,2013-05-17 03:35:00
10:55 PM,53.6,50.0,88,29.96,10.0,ESE,8.1,-,N/A,,Overcast,110,2013-05-17 03:55:00
11:15 PM,53.6,51.8,94,29.96,10.0,SE,11.5,-,N/A,,Overcast,130,2013-05-17 04:15:00
11:35 PM,51.8,51.8,100,29.97,5.0,SE,10.4,-,N/A,,Overcast,130,2013-05-17 04:35:00
11:55 PM,51.8,51.8,100,29.96,3.0,ESE,9.2,-,N/A,Rain,Light Rain,110,2013-05-17 04:55:00